Regional Weather Roundup
Issued by NWS Mobile, AL

Home | Current Version | Previous Version | Text Only | Print | Product List | Glossary On
Versions: 1 2 3 4 5 6 7 8 9 10 11 12 13 14 15 16 17 18 19 20 21 22 23 24 25 26 27 28 29 30 31 32 33 34 35 36 37 38 39 40 41 42 43 44 45 46 47 48 49 50
000
ASUS44 KMOB 301015
RWRMOB
REGIONAL WEATHER ROUNDUP
NATIONAL WEATHER SERVICE MOBILE AL
500 AM CDT SUN AUG 30 2015

ALZ061>064-301100-
COASTAL ALABAMA


CITY           SKY/WX    TMP DP  RH WIND       PRES   REMARKS
MOBILE REG APT MOCLDY    72  71  97 NE3       30.03F
BROOKLEY FIELD MOCLDY    77  72  84 NE7       30.03S
GULF SHORES    RAIN      72  67  85 SW5       30.02R

$$

ALZ051>060-301100-
INTERIOR SOUTHWEST AND SOUTH CENTRAL ALABAMA


CITY           SKY/WX    TMP DP  RH WIND       PRES   REMARKS
ANDALUSIA/OPP  FOG       72  68  87 CALM      30.04R VSB 1/4
EVERGREEN      PTCLDY    66  65  96 CALM      30.05R
FLORALA        CLOUDY    64  64 100 CALM      30.05S FOG
GREENVILLE     CLOUDY    70  68  93 CALM      30.04S FOG

$$

FLZ001>006-301100-
WESTERN FLORIDA PANHANDLE


CITY           SKY/WX    TMP DP  RH WIND       PRES   REMARKS
CRESTVIEW      PTCLDY    67  66  97 CALM      30.04S FOG
DESTIN         PTCLDY    73  71  93 NE5       30.01F
DUKE FIELD     FAIR      66  65  95 CALM      30.02S
MARY ESTHER    CLEAR     69  66  91 N3        30.00F
MILTON         SUNNY     70  67  90 NE5       30.02F
PENSACOLA      CLEAR     71  68  90 NE6       30.02S
NAS PENSACOLA  PTCLDY    73  70  90 NE6       30.02R
VALPARAISO     CLEAR     69  67  93 N3        30.02S

$$

...MARINE OBSERVATIONS...

STATION/POSITION TIME  SKY/WX   TEMP    WIND        PRES    VSBY
                                AIR SEA DIR/SP/G
                 (UTC)          (F)     (DEG/KT/KT) (MB)    (MI)
E DAUPHIN ISLAND 1000            81     170/  2/  2 1016.5R
MIDDLE BAY LIGHT 0900                    90/  7     1015.2F
MEAHER PARK      0900            74      50/  4     1016.3S
12 S ORANGE BCH  0950            82 85  130/  8/ 10 1015.4R
WVE H/P(F/S)=  2/ 5

64 S DAUPHIN ISL 0950            82 85  120/  6/  8 1016.1F
WVE H/P(F/S)=  1/ 5

115 SE PENSACOLA 0950            81 85   50/  6/  8 1015.5F
WVE H/P(F/S)=  1/ 5

MID GULF/42001   1000            83 85   90/  6/ 10 1015.0R
EAST GULF/42003  0950            84 86   10/ 12/ 14 1013.2R
WVE H/P(F/S)=  2/ 5


$$

...NEARBY LOCATIONS

CITY           SKY/WX    TMP DP  RH WIND       PRES   REMARKS
GULFPORT       CLEAR     71  67  87 CALM      30.01S
BILOXI         PTCLDY    71  69  91 N5        30.01S
PASCAGOULA     PTCLDY    68  68 100 CALM      30.01F FOG
HATTIESBURG    PTCLDY    73  70  90 CALM      30.03S
LAUREL         PTCLDY    70  64  83 CALM      30.04S
MERIDIAN       CLOUDY    73  69  87 CALM      30.03F
MERIDIAN NAS   CLOUDY    71  67  87 SE3       30.04S
MONTGOMERY     CLOUDY    73  69  87 NW3       30.04S
MAXWELL AFB    MOCLDY    72  70  94 N3        30.04S
TROY           FOG       68  68 100 CALM      30.05R VSB 1/4
FORT RUCKER    FOG       68  67  96 CALM      30.03R VSB 3/4
DALEVILLE      FOG       68  68 100 NE2       30.03R VSB 3/4
DOTHAN         FOG       68  67  96 CALM      30.07S VSB 3/4

$$

...OTHER SURROUNDING LOCATIONS...

CITY           SKY/WX    TMP DP  RH WIND       PRES   REMARKS
BIRMINGHAM     LGT RAIN  69  68  96 NE7       30.10S
TUSCALOOSA     LGT RAIN  72  70  93 CALM      30.06F
COLUMBUS GA    CLOUDY    72  70  94 CALM      30.04S
PANAMA CITY    NOT AVBL
TALLAHASSEE    PTCLDY    73  70  90 E5        30.00S
BATON ROUGE    CLEAR     70  68  93 CALM      30.01S
NEW ORLEANS    PTCLDY    75  67  76 CALM      30.01R
SLIDELL        CLEAR     68  68 100 CALM      30.01R
JACKSON        CLEAR     70  65  84 SE5       30.01S
MCCOMB         CLEAR     68  66  93 CALM      30.02S

$$

...SURROUNDING MARINE OBSERVATIONS...

STATION/POSITION TIME  SKY/WX   TEMP    WIND        PRES    VSBY
                                AIR SEA DIR/SP/G
                 (UTC)          (F)     (DEG/KT/KT) (MB)    (MI)
SOUTHWEST PASS   1000                                 N/A
TYNDALL TOWER C  1000            80      30/ 10/ 11 1015.3R
S APLCHCLA/42036 0950            82 85   80/  8/ 10 1014.9R
WVE H/P(F/S)=  2/ 4


$$




USA.gov is the U.S. government's official web portal to all federal, state and local government web resources and services.